Weather History for KAPY - March, 2013

Change the Weather History Date:

Sunday, March 24, 2013

  Actual Average (KLRD) Record (KLRD)
Temperature  
Mean Temperature 64 °F 70 °F  
Max Temperature 74 °F 82 °F 103 °F (1954)
Min Temperature 55 °F 59 °F 38 °F (1974)
Degree Days  
Heating Degree Days 0 1  
Month to date heating degree days 62  
Since 1 July heating degree days 906  
Cooling Degree Days 0 7  
Month to date cooling degree days 120  
Year to date cooling degree days 205  
Growing Degree Days 14 (Base 50)    
Moisture  
Dew Point 24 °F    
Average Humidity 27    
Maximum Humidity 82    
Minimum Humidity 7    
Precipitation  
Precipitation 0.00 in 0.04 in 1.42 in (1940)
Month to date precipitation 0.91  
Year to date precipitation 2.75  
Sea Level Pressure  
Sea Level Pressure 29.96 in    
Wind  
Wind Speed 9 mph (North)    
Max Wind Speed 26 mph    
Max Gust Speed 36 mph    
Visibility 9 miles    
Events      
T = Trace of Precipitation, MM = Missing Value Source: NWS Daily Summary

Daily Weather History Graph

Daily Weather History Graph

Search for Another Location

Airport or City:

Trip Planner

Search our weather history database for the weather conditions in past years. The results will help you decide how hot, cold, wet, or windy it might be!

Date:

Astronomy

Mar. 24, 2013 Rise Set
Actual Time 7:36 AM CDT 7:50 PM CDT
Civil Twilight 7:12 AM CDT 8:13 PM CDT
Nautical Twilight 6:45 AM CDT 8:40 PM CDT
Astronomical Twilight 6:18 AM CDT 9:08 PM CDT
Moon 5:31 PM CDT (3/24) 5:34 AM CDT (3/24)
Length of Visible Light 13h 00m
Length of Day
12h 14m
Waxing Gibbous, 92% of the Moon is Illuminated
Mar 24
Waxing Gibbous
Mar 27
Full
Apr 2
Last Quarter
Apr 10
New
Apr 18
First Quarter

Hourly Weather History & Observations

Time (CDT) Temp. Dew Point Humidity Pressure Visibility Wind Dir Wind Speed Gust Speed Precip Events Conditions
12:15 AM 74.3 °F 61.2 °F 63% 29.70 in 7.0 mi SE 3.5 mph - N/A   Clear
12:35 AM 73.0 °F 60.3 °F 64% 29.72 in 7.0 mi Calm Calm - N/A   Clear
12:55 AM 73.0 °F 60.8 °F 65% 29.72 in 10.0 mi SE 4.6 mph - N/A   Clear
1:15 AM 72.7 °F 60.3 °F 65% 29.72 in 7.0 mi SSE 6.9 mph - N/A   Clear
1:35 AM 72.9 °F 61.0 °F 66% 29.72 in 7.0 mi SSE 5.8 mph - N/A   Clear
1:55 AM 72.7 °F 61.3 °F 67% 29.72 in 7.0 mi SSE 6.9 mph - N/A   Clear
2:15 AM 72.7 °F 61.3 °F 67% 29.73 in 7.0 mi SSE 3.5 mph - N/A   Clear
2:35 AM 71.6 °F 61.3 °F 70% 29.72 in 7.0 mi South 4.6 mph - N/A   Clear
2:55 AM 71.6 °F 61.5 °F 70% 29.73 in 7.0 mi Calm Calm - N/A   Clear
3:15 AM 70.7 °F 61.3 °F 72% 29.73 in 7.0 mi Calm Calm - N/A   Clear
3:35 AM 69.6 °F 61.3 °F 75% 29.74 in 7.0 mi Calm Calm - N/A   Clear
3:55 AM 66.6 °F 59.7 °F 79% 29.73 in 7.0 mi Calm Calm - N/A   Clear
4:15 AM 65.7 °F 59.4 °F 80% 29.74 in 7.0 mi Calm Calm - N/A   Clear
4:35 AM 65.8 °F 59.9 °F 81% 29.74 in 7.0 mi WNW 4.6 mph - N/A   Clear
4:55 AM 65.3 °F 59.7 °F 82% 29.75 in 5.0 mi WNW 3.5 mph - N/A   Haze
6:35 AM 70.9 °F 16.7 °F 13% 29.87 in 5.0 mi North 25.3 mph 34.5 mph N/A   Haze
6:55 AM 70.0 °F 23.0 °F 17% 29.89 in 5.0 mi North 23.0 mph 34.5 mph N/A   Haze
7:15 AM 68.9 °F 30.7 °F 24% 29.91 in 5.0 mi North 23.0 mph 35.7 mph N/A   Haze
7:35 AM 68.0 °F 35.2 °F 30% 29.93 in 7.0 mi North 17.3 mph 29.9 mph N/A   Overcast
7:55 AM 67.1 °F 33.8 °F 29% 29.96 in 7.0 mi North 23.0 mph 29.9 mph N/A   Mostly Cloudy
8:15 AM 66.2 °F 32.0 °F 28% 29.99 in 10.0 mi North 18.4 mph 35.7 mph N/A   Clear
8:35 AM 65.8 °F 30.4 °F 27% 30.02 in 10.0 mi North 24.2 mph 32.2 mph N/A   Clear
8:55 AM 65.7 °F 27.5 °F 24% 30.04 in 10.0 mi North 23.0 mph 32.2 mph N/A   Clear
9:15 AM 65.8 °F 25.7 °F 22% 30.07 in 10.0 mi North 17.3 mph 27.6 mph N/A   Clear
9:35 AM 66.2 °F 26.1 °F 22% 30.08 in 10.0 mi NNW 26.5 mph 34.5 mph N/A   Clear
9:55 AM 66.2 °F 24.8 °F 21% 30.09 in 10.0 mi North 23.0 mph 28.8 mph N/A   Scattered Clouds
10:15 AM 67.1 °F 23.7 °F 19% 30.10 in 10.0 mi North 17.3 mph 27.6 mph N/A   Scattered Clouds
10:35 AM 67.5 °F 21.2 °F 17% 30.11 in 10.0 mi North 21.9 mph 31.1 mph N/A   Scattered Clouds
10:55 AM 67.6 °F 19.4 °F 16% 30.12 in 10.0 mi North 19.6 mph 26.5 mph N/A   Clear
11:35 AM 68.4 °F 15.1 °F 13% 30.12 in 10.0 mi NNW 19.6 mph 28.8 mph N/A   Scattered Clouds
12:15 PM 68.7 °F 15.4 °F 13% 30.11 in 10.0 mi North 13.8 mph 25.3 mph N/A   Scattered Clouds
12:35 PM 68.7 °F 14.7 °F 13% 30.11 in 10.0 mi NNW 16.1 mph 27.6 mph N/A   Scattered Clouds
12:55 PM 69.4 °F 16.0 °F 13% 30.11 in 10.0 mi NNW 15.0 mph 27.6 mph N/A   Clear
1:15 PM 70.2 °F 17.6 °F 14% 30.09 in 10.0 mi North 16.1 mph 23.0 mph N/A   Clear
1:35 PM 70.3 °F 16.7 °F 13% 30.09 in 10.0 mi North 18.4 mph 24.2 mph N/A   Clear
1:55 PM 70.7 °F 14.0 °F 11% 30.08 in 10.0 mi North 16.1 mph 26.5 mph N/A   Clear
2:15 PM 70.3 °F 12.0 °F 11% 30.06 in 10.0 mi North 11.5 mph 24.2 mph N/A   Clear
2:35 PM 70.5 °F 11.3 °F 10% 30.05 in 10.0 mi North 17.3 mph 25.3 mph N/A   Clear
2:55 PM 71.4 °F 10.8 °F 10% 30.04 in 10.0 mi North 11.5 mph 23.0 mph N/A   Clear
3:15 PM 70.5 °F 6.8 °F 8% 30.04 in 10.0 mi NNW 17.3 mph 25.3 mph N/A   Clear
3:35 PM 71.4 °F 2.8 °F 7% 30.03 in 10.0 mi NNW 13.8 mph 23.0 mph N/A   Clear
3:55 PM 70.7 °F 3.9 °F 7% 30.02 in 10.0 mi NNW 15.0 mph 21.9 mph N/A   Clear
4:15 PM 71.2 °F 4.3 °F 7% 30.01 in 10.0 mi North 16.1 mph - N/A   Clear
4:35 PM 71.1 °F 4.8 °F 8% 30.00 in 10.0 mi NNW 9.2 mph 17.3 mph N/A   Clear
4:55 PM 70.5 °F 5.0 °F 8% 30.00 in 10.0 mi North 13.8 mph 21.9 mph N/A   Clear
5:15 PM 70.3 °F 5.4 °F 8% 29.99 in 10.0 mi North 8.1 mph 16.1 mph N/A   Clear
5:35 PM 70.9 °F 5.9 °F 8% 29.99 in 10.0 mi North 10.4 mph 17.3 mph N/A   Clear
5:55 PM 70.7 °F 5.2 °F 8% 29.99 in 10.0 mi North 9.2 mph 17.3 mph N/A   Clear
6:15 PM 70.0 °F 5.5 °F 8% 29.99 in 10.0 mi North 9.2 mph - N/A   Clear
6:35 PM 69.8 °F 5.5 °F 8% 29.99 in 10.0 mi North 9.2 mph - N/A   Clear
6:55 PM 68.9 °F 5.7 °F 8% 29.99 in 10.0 mi North 8.1 mph - N/A   Clear
7:15 PM 68.2 °F 5.5 °F 9% 30.00 in 10.0 mi North 5.8 mph - N/A   Clear
7:35 PM 67.3 °F 5.7 °F 9% 30.00 in 10.0 mi North 6.9 mph - N/A   Clear
7:55 PM 66.2 °F 5.7 °F 9% 30.01 in 10.0 mi NNE 4.6 mph - N/A   Clear
8:15 PM 64.8 °F 5.9 °F 10% 30.02 in 10.0 mi North 4.6 mph - N/A   Clear
8:35 PM 63.5 °F 6.4 °F 11% 30.03 in 10.0 mi North 3.5 mph - N/A   Clear
8:55 PM 62.2 °F 6.8 °F 11% 30.04 in 10.0 mi North 3.5 mph - N/A   Clear
9:15 PM 60.8 °F 7.0 °F 12% 30.04 in 10.0 mi Calm Calm - N/A   Clear
9:35 PM 57.7 °F 7.2 °F 13% 30.05 in 10.0 mi Calm Calm - N/A   Clear
9:55 PM 55.9 °F 8.4 °F 15% 30.06 in 10.0 mi NNE 3.5 mph - N/A   Clear
10:15 PM 57.6 °F 7.5 °F 14% 30.06 in 10.0 mi NNE 4.6 mph - N/A   Clear
10:35 PM 58.1 °F 7.5 °F 13% 30.07 in 10.0 mi ENE 3.5 mph - N/A   Clear
10:55 PM 56.3 °F 8.6 °F 15% 30.07 in 10.0 mi ENE 3.5 mph - N/A   Clear
11:15 PM 55.0 °F 9.0 °F 16% 30.07 in 10.0 mi ENE 4.6 mph - N/A   Clear
11:35 PM 55.2 °F 9.0 °F 16% 30.07 in 10.0 mi ENE 4.6 mph - N/A   Clear
11:55 PM 56.3 °F 8.6 °F 15% 30.07 in 10.0 mi ENE 5.8 mph - N/A   Clear